EW6694 Weather Reports


Display with metric or nautical units.
time (UTC)temp
F
wind
direction
speed
MPH
gust
MPH
rain 1hr
in
rain 24hr
in
rain mn
in
humidity
%
barometer
mb
20260502130337 37 284 1.0 7.0 0.00 0.00 0.00 70 1014.9
20260502123316 36 358 0.0 0.0 0.00 0.00 0.00 72 1015.0
20260502122810 36 293 0.0 3.0 0.00 0.00 0.00 73 1014.9
20260502122255 35 293 2.0 5.0 0.00 0.00 0.00 73 1015.1
20260502122249 35 293 0.0 5.0 0.00 0.00 0.00 74 1015.0
20260502121223 35 317 4.0 5.0 0.00 0.00 0.00 73 1015.1
20260502120723 35 305 0.0 4.0 0.00 0.00 0.00 75 1015.1
20260502120220 35 341 2.0 4.0 0.00 0.00 0.00 76 1014.9
20260502115719 35 334 1.0 4.0 0.00 0.00 0.00 76 1015.0
20260502115218 34 327 2.0 4.0 0.00 0.00 0.00 77 1015.0
20260502114717 34 21 4.0 4.0 0.00 0.00 0.00 76 1014.8
20260502114217 34 16 2.0 4.0 0.00 0.00 0.00 79 1014.8
20260502113718 34 19 2.0 5.0 0.00 0.00 0.00 80 1014.9
20260502113215 34 19 3.0 5.0 0.00 0.00 0.00 81 1014.8
20260502112946 34 19 3.0 4.0 0.00 0.00 0.00 82 1014.6
20260502112214 33 23 1.0 2.0 0.00 0.00 0.00 82 1014.5
20260502111706 33 132 0.0 0.0 0.00 0.00 0.00 82 1014.5
20260502111155 33 132 0.0 0.0 0.00 0.00 0.00 82 1014.5
20260502110649 33 132 0.0 0.0 0.00 0.00 0.00 82 1014.6
20260502110136 33 132 0.0 0.0 0.00 0.00 0.00 82 1014.6
20260502105620 33 132 0.0 0.0 0.00 0.00 0.00 82 1014.5
20260502105120 33 132 0.0 0.0 0.00 0.00 0.00 82 1014.6
20260502104613 33 132 0.0 0.0 0.00 0.00 0.00 82 1014.5
20260502104340 33 132 0.0 0.0 0.00 0.00 0.00 82 1014.5
20260502103606 33 132 0.0 0.0 0.00 0.00 0.00 82 1014.6
20260502103103 32 132 0.0 3.0 0.00 0.00 0.00 81 1014.5
20260502102552 33 132 0.0 3.0 0.00 0.00 0.00 81 1014.5
20260502102318 32 168 3.0 3.0 0.00 0.00 0.00 81 1014.5
20260502101600 32 118 0.0 0.0 0.00 0.00 0.00 81 1014.5
20260502101036 33 118 0.0 0.0 0.00 0.00 0.00 81 1014.5
20260502100530 33 118 0.0 0.0 0.00 0.00 0.00 81 1014.5
20260502091411 33 118 0.0 0.0 0.00 0.00 0.00 79 1014.3
20260502090906 33 118 0.0 1.0 0.00 0.00 0.00 79 1014.3
20260502090406 33 118 0.0 2.0 0.00 0.00 0.00 78 1014.3
20260502071307 34 358 4.0 7.0 0.00 0.00 0.00 75 1013.7
20260502070806 33 347 4.0 7.0 0.00 0.00 0.00 76 1013.7
20260502070309 33 288 0.0 6.0 0.00 0.00 0.00 78 1013.9
20260502065756 33 319 2.0 6.0 0.00 0.00 0.00 79 1013.9
20260502065257 32 330 3.0 6.0 0.00 0.00 0.00 82 1013.9
20260502064755 31 350 2.0 3.0 0.00 0.00 0.00 81 1013.9
20260502064256 31 303 0.0 0.0 0.00 0.00 0.00 81 1013.9
20260502063734 31 303 0.0 0.0 0.00 0.00 0.00 80 1013.9
20260502063231 31 303 0.0 0.0 0.00 0.00 0.00 80 1013.9
20260502063223 31 303 0.0 0.0 0.00 0.00 0.00 80 1013.9
20260502062153 31 303 0.0 0.0 0.00 0.00 0.00 80 1014.0
20260502061901 31 303 0.0 0.0 0.00 0.00 0.00 79 1014.0
20260502061106 31 303 0.0 0.0 0.00 0.00 0.00 79 1014.0
20260502060608 31 303 0.0 0.0 0.00 0.00 0.00 78 1013.9
20260502060106 31 303 0.0 0.0 0.00 0.00 0.00 77 1013.9
20260502055544 32 303 0.0 0.0 0.00 0.00 0.00 77 1014.0
20260502055033 32 303 0.0 0.0 0.00 0.00 0.00 76 1013.9
20260502054525 32 303 0.0 0.0 0.00 0.00 0.00 76 1014.0
20260502054025 33 303 0.0 0.0 0.00 0.00 0.00 75 1014.0
20260502053731 34 303 0.0 4.0 0.00 0.00 0.00 74 1014.0
20260502053612 33 303 0.0 0.0 0.00 0.00 0.00 75 1014.0
20260502052500 35 303 0.0 5.0 0.00 0.00 0.00 72 1013.9
20260502051937 35 299 2.0 5.0 0.00 0.00 0.00 72 1013.9
20260502051440 35 312 3.0 4.0 0.00 0.00 0.00 70 1013.9
20260502050934 35 326 3.0 4.0 0.00 0.00 0.00 70 1013.7
20260502050437 36 354 2.0 5.0 0.00 0.00 0.00 71 1013.7
20260502045934 36 9 3.0 5.0 0.00 0.00 0.00 70 1013.7
20260502045708 36 358 2.0 4.0 0.00 0.00 0.00 70 1013.7
20260502045205 36 343 0.0 2.0 0.00 0.00 0.00 69 1013.9
20260502044435 36 337 0.0 3.0 0.00 0.00 0.00 70 1013.9
20260502043929 36 338 2.0 4.0 0.00 0.00 0.00 69 1014.0
20260502043428 36 338 3.0 4.0 0.00 0.00 0.00 69 1014.0
20260502042924 36 326 2.0 4.0 0.00 0.00 0.00 69 1014.0
20260502042656 36 322 2.0 4.0 0.00 0.00 0.00 69 1013.9
20260502041926 36 338 2.0 4.0 0.00 0.00 0.00 70 1013.9
20260502041700 37 350 0.0 3.0 0.00 0.00 0.00 70 1013.7
20260502040920 37 350 2.0 3.0 0.00 0.00 0.00 68 1013.7
20260502040421 37 345 2.0 0.0 0.00 0.00 0.00 68 1013.9
20260502035852 37 348 2.0 4.0 0.00 0.00 0.00 68 1013.9
20260502035350 37 352 2.0 6.0 0.00 0.00 0.00 67 1014.0
20260502034850 38 350 1.0 6.0 0.00 0.00 0.00 66 1014.0
20260502034621 37 350 3.0 5.0 0.00 0.00 0.00 64 1013.9
20260502034121 38 4 4.0 6.0 0.00 0.00 0.00 65 1014.0
20260502033346 38 4 3.0 7.0 0.00 0.00 0.00 65 1014.0
20260502032844 38 352 5.0 7.0 0.00 0.00 0.00 64 1014.0
20260502032343 38 21 3.0 7.0 0.00 0.00 0.00 64 1013.9
20260502031843 38 358 4.0 9.0 0.00 0.00 0.00 65 1013.9
20260502031342 38 355 3.0 9.0 0.00 0.00 0.00 64 1013.9
20260502030842 38 355 7.0 9.0 0.00 0.00 0.00 64 1013.9
20260502030341 38 1 4.0 10.0 0.00 0.00 0.00 65 1014.0
20260502025839 38 351 5.0 11.0 0.00 0.00 0.00 63 1014.0
20260502025338 38 14 4.0 11.0 0.00 0.00 0.00 62 1014.0
20260502024837 38 354 8.0 11.0 0.00 0.00 0.00 61 1014.0
20260502024337 38 12 6.0 14.0 0.00 0.00 0.00 62 1014.1
20260502024108 39 14 5.0 14.0 0.00 0.00 0.00 62 1014.1
20260502023335 38 352 8.0 13.0 0.00 0.00 0.00 60 1014.0
20260502022834 38 11 5.0 15.0 0.00 0.00 0.00 63 1014.0
20260502022337 38 344 9.0 15.0 0.00 0.00 0.00 61 1014.0
20260502021832 38 2 9.0 14.0 0.00 0.00 0.00 61 1014.0
20260502021332 39 8 7.0 13.0 0.00 0.00 0.00 62 1014.0
20260502020831 39 46 5.0 15.0 0.00 0.00 0.00 62 1014.0
20260502020329 39 11 8.0 15.0 0.00 0.00 0.00 62 1014.0
20260502015830 39 343 8.0 14.0 0.00 0.00 0.00 61 1013.9
20260502015328 40 16 6.0 15.0 0.00 0.00 0.00 61 1013.7
20260502014828 40 358 6.0 15.0 0.00 0.00 0.00 61 1013.7
20260502014326 40 345 11.0 15.0 0.00 0.00 0.00 58 1013.6
20260502013825 40 336 9.0 14.0 0.00 0.00 0.00 59 1013.6
20260502013557 40 350 6.0 14.0 0.00 0.00 0.00 61 1013.5
20260502012838 40 1 6.0 14.0 0.00 0.00 0.00 60 1013.5
20260502012324 40 16 7.0 14.0 0.00 0.00 0.00 58 1013.4
20260502011836 40 4 11.0 14.0 0.00 0.00 0.00 59 1013.3
20260502011322 40 1 7.0 15.0 0.00 0.00 0.00 59 1013.3
20260502011105 40 357 9.0 15.0 0.00 0.00 0.00 62 1013.2
20260502010824 41 343 6.0 15.0 0.00 0.00 0.00 61 1013.2
20260502005818 41 8 3.0 6.0 0.00 0.00 0.00 66 1013.1
20260502005319 41 357 2.0 9.0 0.00 0.00 0.00 65 1012.9
20260502004819 41 358 2.0 9.0 0.00 0.00 0.00 65 1013.0
20260502004311 41 2 4.0 9.0 0.00 0.00 0.00 63 1012.9
20260502003818 41 0 2.0 6.0 0.00 0.00 0.00 66 1012.9
20260502003810 41 22 4.0 7.0 0.00 0.00 0.00 64 1012.9
20260502003437 41 345 4.0 7.0 0.00 0.00 0.00 64 1012.8
20260502002307 42 11 3.0 7.0 0.00 0.00 0.00 64 1012.8
20260502002039 42 315 5.0 7.0 0.00 0.00 0.00 63 1012.7
20260502001308 42 302 3.0 7.0 0.00 0.00 0.00 64 1012.7
20260502000805 42 279 2.0 7.0 0.00 0.00 0.00 66 1012.6
20260502000317 42 316 4.0 8.0 0.00 0.00 0.00 65 1012.5
20260502000304 41 265 4.0 7.0 0.00 0.00 0.00 65 1012.6
20260501235306 42 298 4.0 11.0 0.00 0.00 0.00 64 1012.5
20260501234803 42 298 5.0 11.0 0.00 0.00 0.00 64 1012.5
20260501234302 41 315 6.0 10.0 0.00 0.00 0.00 65 1012.5
20260501233800 41 317 5.0 9.0 0.00 0.00 0.00 65 1012.4
20260501233259 42 310 6.0 9.0 0.00 0.00 0.00 67 1012.4
20260501232800 42 317 4.0 9.0 0.00 0.00 0.00 67 1012.4
20260501232258 42 302 4.0 10.0 0.00 0.00 0.00 67 1012.4
20260501231756 42 286 5.0 11.0 0.00 0.00 0.00 68 1012.3
20260501231256 42 293 7.0 11.0 0.00 0.00 0.00 69 1012.3
20260501230755 41 313 7.0 12.0 0.00 0.00 0.00 69 1012.4
20260501230254 41 319 6.0 12.0 0.00 0.00 0.00 71 1012.4
20260501225754 41 299 8.0 12.0 0.00 0.00 0.00 69 1012.3
20260501225254 41 307 6.0 11.0 0.00 0.00 0.00 68 1012.4
20260501224752 42 278 4.0 11.0 0.00 0.00 0.00 67 1012.4
20260501224251 41 279 7.0 11.0 0.00 0.00 0.00 67 1012.4
20260501223754 41 282 7.0 10.0 0.00 0.00 0.00 65 1012.4
20260501223251 42 300 5.0 9.0 0.00 0.00 0.00 68 1012.3
20260501222749 42 324 5.0 9.0 0.00 0.00 0.00 69 1012.3
20260501222247 42 329 7.0 9.0 0.00 0.00 0.00 67 1012.3
20260501221747 42 315 6.0 9.0 0.00 0.00 0.00 66 1012.2
20260501221248 42 305 5.0 8.0 0.00 0.00 0.00 67 1012.3
20260501221015 42 293 4.0 9.0 0.00 0.00 0.00 67 1012.2
20260501220243 42 326 5.0 9.0 0.00 0.00 0.00 68 1012.2
20260501215743 42 320 5.0 10.0 0.00 0.00 0.00 68 1012.2
20260501215243 42 334 2.0 10.0 0.00 0.00 0.00 66 1012.2
20260501214743 42 319 4.0 10.0 0.00 0.00 0.00 67 1012.2
20260501214240 42 348 2.0 9.0 0.00 0.00 0.00 68 1012.1
20260501214012 42 338 4.0 9.0 0.00 0.00 0.00 68 1012.1
20260501213236 42 284 5.0 8.0 0.00 0.00 0.00 67 1012.1
20260501213009 42 309 5.0 9.0 0.00 0.00 0.00 69 1012.0
20260501212240 42 286 4.0 9.0 0.00 0.00 0.00 68 1012.1
20260501211725 42 345 2.0 9.0 0.00 0.00 0.00 69 1012.0
20260501211223 41 262 5.0 9.0 0.00 0.00 0.00 68 1012.1
20260501210721 41 333 6.0 10.0 0.00 0.00 0.00 68 1012.1
20260501210221 42 302 5.0 10.0 0.00 0.00 0.00 69 1012.1
20260501205951 42 288 3.0 9.0 0.00 0.00 0.00 70 1012.1
20260501205219 42 277 4.0 9.0 0.00 0.00 0.00 68 1012.1
20260501204718 42 354 4.0 10.0 0.00 0.00 0.00 70 1012.1
20260501204216 41 277 5.0 10.0 0.00 0.00 0.00 73 1012.1
20260501203716 41 319 8.0 10.0 0.00 0.00 0.00 70 1012.1
20260501203216 41 343 7.0 9.0 0.00 0.00 0.00 71 1012.1
20260501202714 42 289 1.0 6.0 0.00 0.00 0.00 74 1012.1
20260501202215 41 16 0.0 8.0 0.00 0.00 0.00 74 1012.1
20260501201704 41 340 0.0 8.0 0.00 0.00 0.00 75 1012.2
20260501201146 40 288 5.0 9.0 0.00 0.00 0.00 75 1012.2
20260501200645 40 274 2.0 11.0 0.00 0.00 0.00 75 1012.3
20260501200144 40 324 7.0 11.0 0.00 0.00 0.00 76 1012.3
20260501195643 39 282 6.0 10.0 0.00 0.00 0.00 76 1012.3
20260501195144 39 350 6.0 10.0 0.00 0.00 0.00 74 1012.4
20260501194652 39 317 8.0 10.0 0.00 0.00 0.00 75 1012.4
20260501194644 39 327 6.0 10.0 0.00 0.00 0.00 75 1012.3
20260501193640 40 329 8.0 10.0 0.00 0.00 0.00 77 1012.4
20260501193139 40 358 6.0 9.0 0.00 0.00 0.00 76 1012.4
20260501192909 40 348 5.0 7.0 0.00 0.00 0.00 77 1012.5
20260501192137 40 15 2.0 7.0 0.00 0.00 0.00 77 1012.4
20260501191913 40 42 2.0 7.0 0.00 0.00 0.00 78 1012.4
20260501191136 40 106 5.0 7.0 0.00 0.00 0.00 77 1012.4
20260501190635 40 77 3.0 7.0 0.00 0.00 0.00 78 1012.5
20260501190405 40 151 0.0 7.0 0.00 0.00 0.00 79 1012.5
20260501185635 39 316 4.0 7.0 0.00 0.00 0.00 77 1012.5
20260501185133 39 358 5.0 8.0 0.00 0.00 0.00 78 1012.5
20260501184905 39 336 1.0 9.0 0.00 0.00 0.00 80 1012.4
20260501184131 39 347 5.0 10.0 0.00 0.00 0.00 81 1012.5
20260501183631 38 23 7.0 10.0 0.00 0.00 0.00 79 1012.5
20260501183130 39 4 5.0 9.0 0.00 0.00 0.00 81 1012.5
20260501182629 39 28 4.0 10.0 0.00 0.00 0.00 81 1012.6
20260501182128 39 16 3.0 10.0 0.00 0.00 0.00 82 1012.5
20260501181900 39 344 4.0 11.0 0.00 0.00 0.00 84 1012.6
20260501181126 38 358 7.0 11.0 0.00 0.00 0.00 83 1012.6
20260501180627 38 357 6.0 12.0 0.00 0.00 0.00 84 1012.6
20260501180125 38 11 6.0 12.0 0.00 0.00 0.00 84 1012.6
20260501175627 38 345 3.0 12.0 0.00 0.00 0.00 86 1012.6
20260501175354 38 12 4.0 8.0 0.00 0.00 0.00 86 1012.7
20260501174622 38 56 5.0 8.0 0.00 0.00 0.00 87 1012.7
20260501174122 38 33 5.0 7.0 0.00 0.00 0.00 87 1012.7
20260501173620 38 30 4.0 11.0 0.00 0.00 0.00 89 1012.7
20260501173120 37 57 4.0 11.0 0.00 0.00 0.00 90 1012.8
20260501172620 37 32 6.0 9.0 0.00 0.00 0.00 90 1012.8
20260501172120 37 85 5.0 9.0 0.00 0.00 0.00 91 1012.8
20260501171632 35 35 5.0 8.0 0.00 0.00 0.00 92 1012.9
20260501171618 36 63 3.0 9.0 0.00 0.00 0.00 92 1012.9
20260501170616 35 28 4.0 9.0 0.00 0.00 0.00 93 1013.0
20260501170121 35 42 6.0 9.0 0.00 0.00 0.00 93 1012.9
20260501165616 35 341 6.0 10.0 0.00 0.00 0.00 94 1013.0
20260501165608 35 340 7.0 9.0 0.00 0.00 0.00 93 1012.9
20260501164606 35 330 5.0 10.0 0.00 0.00 0.00 93 1013.0
20260501164105 35 2 6.0 10.0 0.00 0.00 0.00 94 1013.0
20260501163608 35 355 5.0 10.0 0.00 0.00 0.00 94 1013.0
20260501163116 35 343 5.0 10.0 0.00 0.00 0.00 93 1013.0
20260501162603 35 2 4.0 11.0 0.00 0.00 0.00 93 1013.0
20260501162334 35 32 5.0 11.0 0.00 0.00 0.00 92 1013.0
20260501161601 35 340 6.0 10.0 0.00 0.00 0.00 91 1013.0
20260501161114 36 9 5.0 10.0 0.00 0.00 0.00 91 1013.0
20260501160829 36 30 5.0 11.0 0.00 0.00 0.00 91 1013.0
20260501160111 35 23 8.0 11.0 0.00 0.00 0.00 90 1013.0
20260501155557 35 40 7.0 12.0 0.00 0.00 0.00 91 1013.0
20260501155056 35 9 9.0 12.0 0.00 0.00 0.00 91 1013.1
20260501154557 35 32 9.0 12.0 0.00 0.00 0.00 91 1013.1
20260501154055 34 7 9.0 12.0 0.00 0.00 0.00 91 1013.2
20260501153556 34 8 9.0 12.0 0.00 0.00 0.00 89 1013.1
20260501153053 35 23 5.0 11.0 0.00 0.00 0.00 92 1013.1
20260501152824 35 21 7.0 11.0 0.00 0.00 0.00 91 1013.2
20260501152056 35 45 5.0 10.0 0.00 0.00 0.00 91 1013.1
20260501151551 35 26 4.0 11.0 0.00 0.00 0.00 92 1013.1
20260501151050 35 53 6.0 11.0 0.00 0.00 0.00 91 1013.1
20260501150550 35 23 5.0 10.0 0.00 0.00 0.00 92 1013.2
20260501150101 35 33 6.0 11.0 0.00 0.00 0.00 91 1013.2
20260501145549 35 45 5.0 11.0 0.00 0.00 0.00 92 1013.3
20260501145048 34 29 7.0 12.0 0.00 0.00 0.00 92 1013.2
20260501144545 33 68 6.0 12.0 0.00 0.00 0.00 91 1013.2
20260501144047 34 75 6.0 12.0 0.00 0.00 0.00 92 1013.3
20260501143546 34 21 7.0 12.0 0.00 0.00 0.00 92 1013.3
20260501143044 34 67 5.0 12.0 0.00 0.00 0.00 92 1013.3
20260501142544 33 33 9.0 15.0 0.00 0.00 0.00 91 1013.2